Location: *
(51.0333°S, 178.4667°E)
Time: 08:38:44
(UTC+00:00)

H-2A R/B - Pass Details

Date: 15 November 2019
Orbit: 733 x 837 km, 98.3° (Epoch: 08 December)

Event Time Altitude Azimuth Distance (km) Brightness Sun altitude
Rises 10:05:39 0° 172° (S) 3,306 6.2 -16.8°
Reaches altitude 10° 10:08:08 10° 180° (S) 2,388 5.6 -17.0°
Maximum altitude 10:12:51 34° 243° (WSW) 1,320 3.7 -17.3°
Drops below altitude 10° 10:17:38 10° 306° (NW) 2,423 4.5 -17.6°
Sets 10:20:10 0° 315° (NW) 3,362 5.1 -17.7°
